sat.trackr.live / text

‹ back to catalog

TIANQI-35

NORAD 62367 · 2024-245C

PAYLOAD ACTIVE UNKNOWN

§ Identity

Operator
Country
PRC
Launch date
2024-12-19
Launch site
YSLA
Launch vehicle
Mass (kg)
RCS (m²)

External: N2YO · Heavens-Above · Gunter

§ Orbital elements

Epoch: 2026-09-22T12:32:40.096320Z

Period
102.91 min
Inclination
44.9840°
Eccentricity
0.0008022
Mean motion
13.99220611 rev/d
Perigee alt
890.7 km
Apogee alt
902.3 km
Semi-major
7,274.6 km
B*
6.4684e-5
RAAN
248.6291°
Arg perigee
99.7662°
Mean anomaly
260.4077°
Rev number
8,997

§ Raw data

TIANQI-351 62367U 24245C   26265.52268630 -.00000034  00000+0  64684-4 0  99932 62367  44.9840 248.6291 0008022  99.7662 260.4077 13.99220611 89971

JSON: /api/v1/satellites/62367 · /tle

For live sub-satellite position, see the globe view (requires WebGL).

§ Visibility from observer

Set your observer location to see the next 7 days of passes ≥ 10°. The values pass through the URL so the page stays shareable.

No JS? Fill the form by hand. The geolocation button needs JavaScript.